"Pseudo-MPEC" for ZTB69E1

Created 2018 Oct 12 22:18:25 UT using Find_Orb

Click here for an explanation of pseudo-MPECs

 
 Astrometry: 
     ZTB69E1  C2018 10 10.29667 02 05 09.51 +27 33 05.3                VNEOCPG96
     ZTB69E1  C2018 10 10.30180 02 05 16.53 +27 33 10.7          20.1 GVNEOCPG96
     ZTB69E1  C2018 10 10.30695 02 05 23.49 +27 33 16.7          20.2 GVNEOCPG96
     ZTB69E1  C2018 10 10.31208 02 05 30.49 +27 33 22.1          20.5 GVNEOCPG96
     ZTB69E1  C2018 10 10.44136 02 08 16.92 +27 34 13.7          19.9 GVNEOCPI52
     ZTB69E1  C2018 10 10.44233 02 08 18.15 +27 34 13.6          20.1 GVNEOCPI52
     ZTB69E1  C2018 10 10.44331 02 08 19.37 +27 34 13.2          20.0 GVNEOCPI52
     ZTB69E1 KC2018 10 1031AstrometryR46op'V\W3GQTp;NUD/=q*,DiQ1c=jy2`ZBClUDlL01
     ZTB69E1 KC2018 10 11aRYmj4kS+b^l`'CK*`ht:U[NwX@-V2H.('UMoFbFHFjt**XxKmMIL01
     ZTB69E1 KC2018 10 11KG0[4XC9xi.xJb`B/chS7L7-+6Yx=\$l_R$]I=[l%Zpgt9v7[)N.L01
     ZTB69E1 KC2018 10 11A\m1;ENQIFCcy!F[HCo?dj2;[mDdU?FH*;nXlqYiZ2jZ4b6_eU#UK88
     ZTB69E1 KC2018 10 11gk5=Uj6U9AJaSpX2_redacted;mD)M2ECI*/$-F/5Cd%Y?rTi3._K88
     ZTB69E1 KC2018 10 11l@x_e[fwd0s%rk%x!nu?M.9Fc\3qv%kNV0+.6I.!BgsgFKhnbB.UK88
     ZTB69E1  C2018 10 11Bq7UB354bSDr8,baoc]66K7;m+;UMJ0ouKr5`,Qm*#,k@G`]+PtVH01
     ZTB69E1  C2018 10 11giIs+YF/Cp*EuV55@(Gxhl6R!A(OQJ?TCJ3C31m=0hNy#j@`7rN)H01
     ZTB69E1  C2018 10 116d5k_rA6B`k?dXwi0nRBy03sp$kDb[/QMnIn_E.PL.5#xyKRQH+aH01
     ZTB69E1  C2018 10 11[YW9JV!,?-3gV[LVCto1cLcbwo:EUZYgseeN^C)Db6WOm8#[XQ*CH01
     ZTB69E1 KC2018 10 12;V,#-UqS0MgC:;'7E%y[\((N^+c=]m`x#GUeM2_Vn!7+=*[Sfd(KH21
     ZTB69E1 KC2018 10 12Ikh,9N^pu:[xgSdAm@5n2@nO$)(jG0;qV]WI2sa0/9Q$r/xa#0[KH21
     ZTB69E1 KC2018 10 1299UB),ys\+?HG901#b'4NZOQD0W^IfZ,h@_]BGVDHI.3K2OjmcrMH21
     ZTB69E1 KC2018 10 12l#LVZ0YFDeidK_!G`Xk.[u-fJQYgIaYL35awn-A3P_85;9uNEOCPH21

Station data:
(G96) Mt. Lemmon Survey  (N32.442754 W110.788720)  US/Arizona.  Observers B.
   M. Africano, E. J. Christensen, D. C. Fuls, A. R. Gibbs, A. D. Grauer, J.
   A. Johnson, R. A. Kowalski, S. M. Larson, G. J. Leonard, R. L. Seaman, F.
   C. Shelly. 1.5-m reflector + 10K CCD.
(H01) Magdalena Ridge Observatory, Socorro  (N33.984833 W107.189333)  US/New
   Mexico.  Observers W. H. Ryan, E. V. Ryan. Measurer W. H. Ryan. 2.4-m
   f/8.9 reflector + CCD.
(H21) Astronomical Research Observatory, Westfield  (N39.483057 W87.968270)
   US/Illinois. 0.76-m f/3.0 astrograph + CCD.
(I52) Steward Observatory, Mt. Lemmon Station  (N32.442547 W110.788920)
   US/Arizona.  Observers B. M. Africano, E. J. Christensen, D. C. Fuls, A.
   R. Gibbs, A. D. Grauer, J. A. Johnson, R. A. Kowalski, S. M. Larson, G. J.
   Leonard, R. L. Seaman, F. C. Shelly. 1.0-m reflector + CCD.
(K88) GINOP-KHK, Piszkéstető  (N47.917622 E19.893600)  Hungary.  Observer K.
   Sárneczky. 0.60-m Schmidt + CCD.
(L01) Višnjan Observatory, Tičan  (N45.290900 E13.749300)  Croatia.  Observer
   K. Korlević. 1.0-m f/2.9 reflector + CCD.

Orbital elements:  ZTB69E1
   Perihelion 2018 Sep 13.087796 +/- 0.00231 TT =  2:06:25 (JD 2458374.587796)
Epoch 2018 Oct 12.0 TT = JDT 2458403.5   Earth MOID: 0.0009   Ma: 0.0423
M   7.60202 +/- 0.013               (J2000 ecliptic)          AutoNEOCP
n   0.26293495 +/- 0.000431         Peri.  329.01657 +/- 0.0026
a   2.41307324 +/- 0.00264          Node    12.53746 +/- 0.00053
e   0.6098064 +/- 0.00044           Incl.    2.71411 +/- 0.0013
P   3.75                   H 28.1   G  0.15   U  7.5  
q 0.94156550 +/- 3.48e-5    Q 3.88458097 +/- 0.00531
From 21 observations 2018 Oct. 10-12; mean residual 0".24
Residuals in arcseconds: 
181010 G96  .20-  .23+    181010 L01  .35+  .57-    181011 H01  .14+  .09+    
181010 G96  .00   .33-    181011 L01  .06+  .12-    181011 H01  .31+  .04-    
181010 G96  .46-  .04-    181011 L01  .14-  .23+    181011 H01  .07-  .04+    
181010 G96  .47+  .05-    181011 K88  .48-  .07+    181012 H21  .32-  .23+    
181010 I52  .02-  .13+    181011 K88  .09-  .00     181012 H21  .32-  .17+    
181010 I52  .18+  .20+    181011 K88  .00   .15+    181012 H21  .09+  .09+    
181010 I52  .09+  .02-    181011 H01  .13-  .05-    181012 H21  .54+  .41-    

Ephemerides (geocentric):
Date (UTC) HH   RA              Dec         delta   r     elong  mag " sig PA
---- -- -- --  -------------   -----------  ------ ------ -----  --- ---- ---
2018 10 12 22  02 38 34.740   +27 33 01.89  .03202 1.0261 151.2 21.9  .07   2
2018 10 12 23  02 38 49.905   +27 32 52.12  .03228 1.0263 151.2 22.0  .07   3
2018 10 13 00  02 39 04.816   +27 32 42.34  .03255 1.0265 151.2 22.0  .07   5
2018 10 13 01  02 39 19.478   +27 32 32.52  .03281 1.0268 151.2 22.0  .07   6
2018 10 13 02  02 39 33.898   +27 32 22.69  .03308 1.0270 151.2 22.0  .07   8
2018 10 13 03  02 39 48.081   +27 32 12.85  .03334 1.0272 151.2 22.0  .07   9
2018 10 13 04  02 40 02.032   +27 32 02.98  .03361 1.0274 151.2 22.1  .07  10
2018 10 13 05  02 40 15.758   +27 31 53.10  .03387 1.0276 151.2 22.1  .07  12
2018 10 13 06  02 40 29.262   +27 31 43.22  .03414 1.0279 151.2 22.1  .07  13
2018 10 13 07  02 40 42.551   +27 31 33.32  .03440 1.0281 151.2 22.1  .07  15
2018 10 13 08  02 40 55.629   +27 31 23.41  .03467 1.0283 151.2 22.1  .07  16
2018 10 13 09  02 41 08.500   +27 31 13.50  .03493 1.0285 151.2 22.1  .07  17
2018 10 13 10  02 41 21.170   +27 31 03.58  .03520 1.0288 151.2 22.2  .07  19
2018 10 13 11  02 41 33.643   +27 30 53.66  .03546 1.0290 151.2 22.2  .07  20
2018 10 13 12  02 41 45.923   +27 30 43.74  .03573 1.0292 151.2 22.2  .07  21
2018 10 13 13  02 41 58.014   +27 30 33.81  .03600 1.0294 151.2 22.2  .07  23
2018 10 13 14  02 42 09.921   +27 30 23.89  .03626 1.0297 151.2 22.2  .07  24
2018 10 13 15  02 42 21.647   +27 30 13.97  .03653 1.0299 151.2 22.2  .07  25
2018 10 13 16  02 42 33.196   +27 30 04.05  .03679 1.0301 151.2 22.3  .07  26
2018 10 13 17  02 42 44.572   +27 29 54.13  .03706 1.0303 151.3 22.3  .07  28
2018 10 13 18  02 42 55.779   +27 29 44.22  .03733 1.0306 151.3 22.3  .07  29
2018 10 13 19  02 43 06.819   +27 29 34.31  .03759 1.0308 151.3 22.3  .07  30
2018 10 13 20  02 43 17.698   +27 29 24.41  .03786 1.0310 151.3 22.3  .07  31
2018 10 13 21  02 43 28.417   +27 29 14.52  .03812 1.0312 151.3 22.3  .08  32
2018 10 13 22  02 43 38.980   +27 29 04.63  .03839 1.0315 151.3 22.3  .08  33
2018 10 13 23  02 43 49.391   +27 28 54.75  .03866 1.0317 151.3 22.4  .08  34
2018 10 14 00  02 43 59.651   +27 28 44.88  .03892 1.0319 151.3 22.4  .08  35
2018 10 14 01  02 44 09.766   +27 28 35.01  .03919 1.0321 151.3 22.4  .08  36
2018 10 14 02  02 44 19.736   +27 28 25.16  .03945 1.0324 151.3 22.4  .08  37
2018 10 14 03  02 44 29.566   +27 28 15.32  .03972 1.0326 151.3 22.4  .08  38
2018 10 14 04  02 44 39.257   +27 28 05.48  .03999 1.0328 151.4 22.4  .08  39
2018 10 14 05  02 44 48.813   +27 27 55.66  .04025 1.0331 151.4 22.4  .08  40
2018 10 14 06  02 44 58.236   +27 27 45.84  .04052 1.0333 151.4 22.5  .08  41
2018 10 14 07  02 45 07.528   +27 27 36.04  .04079 1.0335 151.4 22.5  .08  42
2018 10 14 08  02 45 16.693   +27 27 26.25  .04105 1.0337 151.4 22.5  .08  43
2018 10 14 09  02 45 25.732   +27 27 16.47  .04132 1.0340 151.4 22.5  .09  44
2018 10 14 10  02 45 34.649   +27 27 06.70  .04159 1.0342 151.4 22.5  .09  45
2018 10 14 11  02 45 43.444   +27 26 56.94  .04185 1.0344 151.4 22.5  .09  45
2018 10 14 12  02 45 52.121   +27 26 47.20  .04212 1.0347 151.5 22.5  .09  46
2018 10 14 13  02 46 00.682   +27 26 37.46  .04239 1.0349 151.5 22.6  .09  47
2018 10 14 14  02 46 09.128   +27 26 27.74  .04265 1.0351 151.5 22.6  .09  48
2018 10 14 15  02 46 17.462   +27 26 18.03  .04292 1.0353 151.5 22.6  .09  48
2018 10 14 16  02 46 25.686   +27 26 08.34  .04319 1.0356 151.5 22.6  .09  49
2018 10 14 17  02 46 33.802   +27 25 58.65  .04345 1.0358 151.5 22.6  .09  50
2018 10 14 18  02 46 41.812   +27 25 48.98  .04372 1.0360 151.6 22.6  .09  50
2018 10 14 19  02 46 49.718   +27 25 39.32  .04399 1.0363 151.6 22.6  .09  51
2018 10 14 20  02 46 57.521   +27 25 29.68  .04426 1.0365 151.6 22.7  .10  52
2018 10 14 21  02 47 05.223   +27 25 20.04  .04452 1.0367 151.6 22.7  .10  52